Location: Orange Harbor Mobile Home Park
(26.6923°N, 81.7937°W)
Time: 23:11:47
(UTC+00:00)

USA 234 - Pass Details

Date: 19 September 2020
Orbit: 1102 x 1106 km, 123.0° (Epoch: 16 October)

Event Time Altitude Azimuth Distance (km) Brightness Sun altitude
Rises 10:09:33 0° 142° (SE) 3,904 6.6 -15.3°
Reaches altitude 10° 10:12:02 10° 143° (SE) 2,948 5.9 -14.8°
Maximum altitude 10:18:33 82° 230° (SW) 1,112 3.2 -13.3°
Drops below altitude 10° 10:25:06 10° 318° (NW) 2,957 5.2 -11.9°
Sets 10:27:35 0° 320° (NW) 3,916 5.8 -11.3°
